Regional Weather Roundup
Issued by NWS Goodland, KS

Home | Current Version | Previous Version | Graphics & Text | Print | Product List | Glossary On
Versions: 1 2 3 4 5 6 7 8 9 10 11 12 13 14 15 16 17 18 19 20 21 22 23 24 25 26 27 28 29 30 31 32 33 34 35 36 37 38 39 40 41 42 43 44 45 46 47 48 49 50
000
ASUS43 KGLD 240359
RWRGLD

GOODLAND FORECAST AREA HOURLY WEATHER ROUNDUP
NATIONAL WEATHER SERVICE GOODLAND KS
900 PM MST FRI FEB 23 2018

...OFFICIAL OBSERVATIONS...

CITY           SKY/WX    TMP DP  RH WIND       PRES   REMARKS
GOODLAND KS    CLOUDY    24  22  91 SE12      30.01S WCI  13
HILL CITY KS   CLOUDY    29  24  82 E12       30.10F WCI  19
IMPERIAL NEB   CLOUDY    20  18  92 NE9       30.05F
MCCOOK NEB     CLOUDY    24  22  91 E14       30.10F WCI  12
AKRON CO       CLOUDY    25  22  88 E12       29.95F WCI  14
BURLINGTON CO  CLOUDY    25  22  88 SE14      29.98R WCI  13
LIMON CO       CLOUDY    21  21 100 S8        29.93R
$$

...UNOFFICIAL OBSERVATIONS...

CITY           SKY/WX    TMP DP  RH WIND       PRES   REMARKS
NORTON KS      CLOUDY    25  19  80 E14G20    30.11  WCI  13
SHARON SPRINGS   N/A     25  22  88 SE9         N/A
KIT CARSON CO    N/A     24  21  88 MISG        N/A
$$




USA.gov is the U.S. government's official web portal to all federal, state and local government web resources and services.